This is the latest recevied weather packets stored in our database for station/object E7HQ-1. If no packets are shown the sender has not sent any weather packets the latest 10 day(s).
| Time | Temp. | Humidity | Pressure | Rain* | Wind** | Luminosity | Snow |
|---|---|---|---|---|---|---|---|
| 1777970636 | 22.78° C | 31% | 1026.8 hPa | - | - | - | - |
| 1777969736 | 22.22° C | 33% | 1026.8 hPa | - | - | - | - |
| 1777968836 | 20.56° C | 34% | 1027 hPa | - | - | - | - |
| 1777967936 | 21.11° C | 35% | 1027.1 hPa | - | - | - | - |
| 1777967036 | 20.56° C | 34% | 1027.2 hPa | - | - | - | - |
| 1777966135 | 20° C | 39% | 1027.3 hPa | - | - | - | - |
| 1777965235 | 18.89° C | 39% | 1027.4 hPa | - | - | - | - |
| 1777964335 | 18.33° C | 40% | 1027.4 hPa | - | - | - | - |
| 1777963435 | 17.22° C | 41% | 1027.4 hPa | - | - | - | - |
| 1777962535 | 16.67° C | 42% | 1027.5 hPa | - | - | - | - |
| 1777961634 | 16.11° C | 44% | 1027.4 hPa | - | - | - | - |
| 1777960734 | 15.56° C | 46% | 1027.3 hPa | - | - | - | - |
| 1777959834 | 14.44° C | 48% | 1027.3 hPa | - | - | - | - |
| 1777958939 | 13.33° C | 50% | 1027.3 hPa | - | - | - | - |
| 1777958039 | 13.33° C | 51% | 1027.2 hPa | - | - | - | - |
| 1777957138 | 12.78° C | 51% | 1027.2 hPa | - | - | - | - |
| 1777956238 | 12.78° C | 51% | 1027.2 hPa | - | - | - | - |
| 1777955338 | 12.78° C | 51% | 1027.2 hPa | - | - | - | - |
| 1777954438 | 12.78° C | 51% | 1027.1 hPa | - | - | - | - |
| 1777953537 | 12.22° C | 51% | 1027.1 hPa | - | - | - | - |
| 1777952637 | 12.22° C | 50% | 1027.1 hPa | - | - | - | - |
| 1777951737 | 12.22° C | 50% | 1027.2 hPa | - | - | - | - |
| 1777950837 | 12.22° C | 50% | 1027.2 hPa | - | - | - | - |
| 1777949937 | 12.78° C | 48% | 1027.3 hPa | - | - | - | - |
| 1777949036 | 12.78° C | 46% | 1027.3 hPa | - | - | - | - |
* Rain since midnight (hover to see other rain measurements)
** Current wind speed in m/s (hover to see current wind gust speed)